Other Public Products
Issued by NWS Grand Forks, ND

Home | Current Version | Previous Version | Graphics & Text | Print | Product List | Glossary On
Versions: 1 2 3 4 5 6 7 8 9 10 11 12 13 14 15 16 17 18 19 20 21 22 23 24 25 26 27 28 29 30 31 32 33 34 35 36 37 38 39 40 41 42 43 44 45 46 47 48 49 50
000
FPUS83 KFGF 290910
OPUFGF
PRAIRIE TO PINES WEATHER ROUNDUP
NATIONAL WEATHER SERVICE EASTERN NORTH DAKOTA/GRAND FORKS ND
400 AM CDT SAT AUG 29 2015

 **SATELLITE DATA USED TO AUGMENT SKY COVER AT AUTOMATED STATIONS**
 *****  WEATHER ACROSS EASTERN NORTH DAKOTA  *****

CITY           SKY/WX    TMP DP  RH WIND       PRES   REMARKS
GRAND FORKS    CLEAR     64  63  96 SE6       29.88R
GRAND FORKS AF CLEAR     61  61 100 S5        29.89R FOG
GRAND CITY NWS   N/A     64 N/A N/A S1          N/A
BUXTON         NOT AVBL
DEVILS LAKE    CLEAR     61  55  82 CALM      29.88S
FARGO          CLEAR     65  61  87 S12       29.92S
WAHPETON ARPT  SUNNY     61  55  82 SE7       29.96S
$$

 *****  WEATHER ACROSS CENTRAL AND WESTERN NORTH DAKOTA  *****

CITY           SKY/WX    TMP DP  RH WIND       PRES   REMARKS
JAMESTOWN      CLEAR     64  62  93 S6        29.90S
BISMARCK       CLEAR     60  60 100 CALM      29.92R
MINOT          CLOUDY    63  55  75 SW10      29.88R HAZE
MINOT AFB      CLEAR     57  57 100 CALM      29.88R
GARRISON         N/A     58  54  86 CALM      29.91R
WILLISTON      CLOUDY    55  48  77 CALM      29.92S HAZE
DICKINSON      CLOUDY    61  47  59 W3        29.96S HAZE
HETTINGER      CLOUDY    50  46  86 NW3       30.01S FOG
$$

 *****  OTHER OBSERVATIONS NORTHEAST NORTH DAKOTA  *****

CITY           SKY/WX    TMP DP  RH WIND       PRES   REMARKS
WALHALLA       FOG       59  59 100 MISG      29.89S VSB 1/2
LANGDON        FAIR      61  61 100 E7        29.91S FOG
CAVALIER       FOG       61  61 100 CALM      29.88S VSB<1/4
GRAFTON        FOG       59  59 100 CALM      29.89R VSB 3/4
CANDO          NOT AVBL
FORT TOTTEN    NOT AVBL
ROLLA          FOG       55  55 100 CALM      29.92S VSB<1/4
RUGBY          FAIR      63  63 100 E5        29.89R
 ***** THE ABOVE OBSERVATIONS ARE NON NWS ARE NOT QUALITY
        CONTROLLED AND MAY MIS-REPORT RAIN FOR SNOW...
$$

 *****  OTHER OBSERVATIONS SOUTHEAST NORTH DAKOTA *****

CITY           SKY/WX    TMP DP  RH WIND       PRES   REMARKS
COOPERSTOWN    NOT AVBL
VALLEY CITY    CLOUDY    64  64 100 S8        29.91S
OAKES            N/A     64  54  68 S14       29.94S
GWINNER          N/A     64  64 100 SW14      29.95S
BUFFALO        NOT AVBL
WYNDMERE         N/A     61  59  94 SE3         N/A
 ***** THE ABOVE OBSERVATIONS ARE NON NWS ARE NOT QUALITY
       CONTROLLED AND MAY MIS-REPORT RAIN FOR SNOW...
$$

  *****  WEATHER ACROSS NORTHERN MINNESOTA  *****

CITY           SKY/WX    TMP DP  RH WIND       PRES   REMARKS
FLAG ISLAND    CLEAR     66  64  94 CALM      29.90S
WARROAD        CLEAR     64  61  88 SW3       29.92S
ROSEAU         CLEAR     64  59  82 S5        29.92S HAZE
HALLOCK        CLEAR     64  63  94 SE5       29.88S FOG
THF RVR FALLS  CLEAR    N/A N/A N/A S7        29.92R
HALSTAD        NOT AVBL
FOSSTON        CLEAR     61  59  94 S10       29.94S
BAUDETTE       CLEAR     64  62  93 S5        29.91S
WASKISH        PTCLDY    64  63  94 CALM      29.94S
CROOKSTON      CLEAR     64  63  94 S9        29.91S
$$
  *****  WEATHER ACROSS CENTRAL AND WEST MINNESOTA  *****

CITY           SKY/WX    TMP DP  RH WIND       PRES   REMARKS
BEMIDJI        PTCLDY    63  61  94 SW8       29.95F
PARK RAPIDS    PTCLDY    62  59  90 S6        29.99S
WADENA         CLEAR     57  57 100 SE3       30.00S
DETROIT LAKES  CLEAR     63  61  94 S7        29.98S
MOORHEAD       CLEAR     63  61  94 S12       29.94F
FERGUS FALLS   CLEAR     61  61 100 S8        29.98S
ELBOW LAKE     FAIR      58  57  96 S8        29.99S
MORRIS MN      CLEAR     57  55  94 S7        29.99S
STAPLES        CLEAR     57  55  94 S3        30.00S
WHEATON        CLEAR     57  55  94 SE8       29.99R
$$
  *****  WEATHER ELSEWHERE ACROSS MINNESOTA  *****

CITY           SKY/WX    TMP DP  RH WIND       PRES   REMARKS
DULUTH         CLOUDY    59  56  89 NE16      30.10R THUNDER
INTRNTL FALLS  CLOUDY    67  64  90 S3        29.93S
ELY            CLOUDY    57  55  94 SW6       30.00R
CLOQUET        CLOUDY    57  55  94 S5        30.04S
BRAINERD       PTCLDY    57  56  96 S5        30.02S
HIBBING        CLOUDY    64  59  83 S7        30.02R
ALEXANDRIA     CLEAR     59  56  89 S7        30.02R
SAINT CLOUD    CLEAR     53  53 100 SE5       30.03R FOG
MINNEAPOLIS    CLEAR     58  55  90 E5        30.03S
$$

  *****  WEATHER ACROSS SOUTH DAKOTA  *****

CITY           SKY/WX    TMP DP  RH WIND       PRES   REMARKS
SIOUX FALLS    CLEAR     54  52  93 CALM      30.02S
BROOKINGS      CLEAR     55  52  88 CALM      30.05R
WATERTOWN      CLEAR     58  56  93 S6        30.00F
HURON          CLEAR     61  59  93 S9        29.99F
SISSETON         N/A     60  59  96 S7        29.95S
ABERDEEN       CLEAR     63  61  93 S7        29.97R
MITCHELL       CLEAR     61  58  90 S6        30.01F
PIERRE         CLEAR     62  61  96 CALM      29.97R
MOBRIDGE       CLEAR     67  67 100 SE7       29.93S
RAPID CITY     CLEAR     59  54  83 NW3       30.05F
$$

  *****  SOME WEATHER IN NEARBY STATES *****

CITY           SKY/WX    TMP DP  RH WIND       PRES   REMARKS
GLASGOW MT     PTCLDY    63  42  46 E10       29.88S HAZE
GREAT FALLS MT CLOUDY    70  40  33 S8        29.97F HAZE
CHEYENNE WY    CLEAR     56  43  61 W3        30.31F
SCOTTSBLUFF NE CLEAR     56  50  80 N3        30.17F
OMAHA NE       CLOUDY    63  61  93 N9        29.99R
DES MOINES IA  DRIZZLE   65  63  93 N9        29.94R FOG
DAVENPORT IA   CLOUDY    65  63  93 S9        29.95F
CHICAGO IL     LGT RAIN  65  61  87 S8        30.03F
EAU CLAIRE WI  CLEAR     52  51  97 E5        30.03S
LA CROSSE WI   CLOUDY    60  57  89 E6        29.99F
$$

  *****  SOME NATIONAL WEATHER *****

CITY           SKY/WX    TMP DP  RH WIND       PRES   REMARKS
LA GUARDIA NY  PTCLDY    71  57  61 NW5       30.18R
RALEIGH NC     PTCLDY    62  60  93 CALM      30.20S
ATLANTA GA     MOCLDY    73  68  84 SE6       30.15S
NEW ORLEANS LA PTCLDY    78  68  71 SE7       29.99F
OKLAHOMA CITY  PTCLDY    69  66  90 SE8       29.98R
ALBUQUERQUE NM LGT RAIN  73  48  41 E8        30.26F
SALT LAKE CITY PTCLDY    73  39  29 SE14      30.05R
LOS ANGELES CA CLEAR     73  66  78 CALM      29.86F
BOISE ID       CLOUDY    79  40  24 S10       29.81R
SEATTLE WA     CLOUDY    63  59  87 S3        29.65F
$$

*** WEATHER ACROSS MANITOBA...SASKATCHEWAN AND ONTARIO ***
                ***ONTARIO***

CITY           SKY/WX    TMP DP  RH WIND       PRES   REMARKS
GERALDTON      FOG       59  59 100 SW3       29.91R VSB 1/2
THUNDER BAY    CLOUDY    57  57 100 VRB2      29.93S
SIOUX LOOKOUT  PTCLDY    59  59 100 SW3       29.89S
TORONTO        NOT AVBL
BIG TROUT LK   PTCLDY    59  57  94 S6        29.81S
PICKLE LAKE    NOT AVBL
DRYDEN         CLEAR     61  61 100 SW7       29.91R FOG
KENORA         CLEAR     63  63 100 SW5       29.92S
$$
                *** MANITOBA***

CITY           SKY/WX    TMP DP  RH WIND       PRES   REMARKS
BRANDON        FOG       59  59 100 E5        29.89S VSB 0
DAUPHIN        CLEAR     54  50  87 W5        29.85R
ISLAND LAKE    NOT AVBL
PILOT MOUND      N/A     59  57  94 E5          N/A
THE PAS        CLOUDY    61  55  82 S12       29.74F
THOMPSON       PTCLDY    52  50  93 NE2       29.69S
WINNIPEG       CLEAR     61  61 100 SE5       29.88S
LYNN LAKE      CLEAR     52  45  76 MISG      29.68S
CHURCHILL      PTCLDY    54  54 100 SW7       29.58S
$$
                ***SASKATCHEWAN***

CITY           SKY/WX    TMP DP  RH WIND       PRES   REMARKS
ESTEVAN        CLOUDY    54  52  94 SE3       29.88F SMOKE
KINDERSLEY     CLOUDY    55  46  71 SW8       29.74F
LLOYDMINSTER   CLEAR     59  52  77 W12       29.65S HAZE
PRINCE ALBERT  PTCLDY    61  59  94 E6        29.68F
REGINA         CLOUDY    59  54  82 E7        29.83F
YORKTON        PTCLDY    63  59  88 S8        29.84S
N. BATTLEFORD  CLEAR     66  50  55 S10       29.68F HAZE



USA.gov is the U.S. government's official web portal to all federal, state and local government web resources and services.